tititudorancea.com
Station Historical Data
Daily Summary for February 11, 2019 Units:  English    Metric   Both
« Previous Day
Next Day »
Daily Weekly Monthly Yearly Custom
  High: Low: Average:
Temperature: TemperatureF °F 51.5 °F 63.6 °F
Dew Point: DewpointF °F 49.3 °F 54.1 °F
Humidity: Humidity % 52 % 73 %
Wind Speed: WindSpeedMPH mph 0.0 mph 8.4 mph
Wind Gust: WindSpeedGustMPH mph - -
Wind:- - WNW
Pressure: PressureIn in 29.42 in -
Precipitation: 0.00 in    
Historical Graphs
 
 
Ararat weather Find more about Weather in Ararat, AU


 



 


Tabular Data for February 11, 2019
Time Temperature Dew Point Pressure Wind Wind Speed Wind Gust Humidity Rainfall Rate (Hourly)
TemperatureF °F DewpointF °F PressureIn in Calm     Humidity % HourlyPrecipIn in
00:04 59.7 °F 52.5 °F 29.72 in SW 2.3 mph 1.3 mph 77 % 0.00 in
00:09 59.5 °F 52.3 °F 29.72 in SW 1.2 mph   77 % 0.00 in
00:14 59.4 °F 52.5 °F 29.72 in SW 2.3 mph 1.2 mph 78 % 0.00 in
00:19 59.2 °F 52.3 °F 29.72 in SW 2.3 mph 0.3 mph 78 % 0.00 in
00:24 59.1 °F 52.2 °F 29.72 in Calm     78 % 0.00 in
00:29 58.8 °F 52.0 °F 29.72 in Calm     78 % 0.00 in
00:34 58.6 °F 52.1 °F 29.72 in Calm     79 % 0.00 in
00:39 58.3 °F 51.8 °F 29.72 in Calm     79 % 0.00 in
00:44 58.1 °F 52.0 °F 29.72 in SW 2.0 mph 1.4 mph 80 % 0.00 in
00:49 57.9 °F 52.1 °F 29.72 in SW 2.3 mph   81 % 0.00 in
00:54 57.7 °F 51.9 °F 29.72 in SW 2.3 mph 0.6 mph 81 % 0.00 in
00:59 57.6 °F 52.1 °F 29.72 in Calm     82 % 0.00 in
01:04 57.4 °F 51.9 °F 29.71 in Calm     82 % 0.00 in
01:09 57.2 °F 51.8 °F 29.71 in Calm     82 % 0.00 in
01:14 57.0 °F 51.9 °F 29.71 in Calm     83 % 0.00 in
01:19 56.8 °F 51.7 °F 29.71 in Calm     83 % 0.00 in
01:24 56.7 °F 51.6 °F 29.71 in Calm     83 % 0.00 in
01:29 56.6 °F 51.8 °F 29.71 in Calm     84 % 0.00 in
01:34 56.5 °F 51.7 °F 29.71 in Calm     84 % 0.00 in
01:39 56.3 °F 51.5 °F 29.71 in Calm     84 % 0.00 in
01:44 56.3 °F 51.8 °F 29.70 in SW 2.0 mph 1.3 mph 85 % 0.00 in
01:49 56.2 °F 51.7 °F 29.70 in SW 2.3 mph 0.9 mph 85 % 0.00 in
01:54 56.1 °F 51.7 °F 29.70 in Calm     85 % 0.00 in
01:59 55.8 °F 51.4 °F 29.69 in Calm     85 % 0.00 in
02:04 55.6 °F 51.5 °F 29.69 in SW 2.3 mph 1.0 mph 86 % 0.00 in
02:09 55.5 °F 51.4 °F 29.69 in SW 3.5 mph 2.2 mph 86 % 0.00 in
02:14 55.6 °F 51.8 °F 29.69 in SW 2.3 mph 1.1 mph 87 % 0.00 in
02:19 55.6 °F 51.5 °F 29.69 in SW 2.0 mph 1.0 mph 86 % 0.00 in
02:24 55.5 °F 51.4 °F 29.69 in Calm     86 % 0.00 in
02:29 55.4 °F 51.6 °F 29.68 in Calm     87 % 0.00 in
02:34 55.3 °F 51.5 °F 29.68 in Calm     87 % 0.00 in
02:39 55.4 °F 51.6 °F 29.68 in Calm     87 % 0.00 in
02:44 55.4 °F 51.6 °F 29.68 in Calm     87 % 0.00 in
02:49 55.3 °F 51.5 °F 29.67 in Calm     87 % 0.00 in
02:54 55.3 °F 51.5 °F 29.67 in SW 2.3 mph 0.5 mph 87 % 0.00 in
02:59 55.3 °F 51.8 °F 29.67 in Calm     88 % 0.00 in
03:04 55.2 °F 51.4 °F 29.67 in Calm     87 % 0.00 in
03:09 55.0 °F 51.5 °F 29.67 in Calm     88 % 0.00 in
03:14 54.9 °F 51.4 °F 29.67 in Calm     88 % 0.00 in
03:19 54.8 °F 51.3 °F 29.66 in SW 1.2 mph 0.9 mph 88 % 0.00 in
03:24 54.8 °F 51.3 °F 29.66 in Calm     88 % 0.00 in
03:29 54.8 °F 51.3 °F 29.66 in Calm     88 % 0.00 in
03:34 54.7 °F 51.5 °F 29.66 in Calm     89 % 0.00 in
03:39 54.6 °F 51.4 °F 29.66 in Calm     89 % 0.00 in
03:44 54.3 °F 51.1 °F 29.66 in Calm     89 % 0.00 in
03:49 54.3 °F 51.1 °F 29.66 in SW 1.0 mph   89 % 0.00 in
03:54 54.4 °F 51.2 °F 29.66 in SW 2.3 mph   89 % 0.00 in
03:59 54.4 °F 51.2 °F 29.65 in Calm     89 % 0.00 in
04:04 54.2 °F 51.0 °F 29.65 in Calm     89 % 0.00 in
04:09 54.0 °F 50.8 °F 29.65 in Calm     89 % 0.00 in
04:14 53.9 °F 50.7 °F 29.65 in Calm     89 % 0.00 in
04:19 53.9 °F 50.7 °F 29.65 in Calm     89 % 0.00 in
04:24 53.6 °F 50.7 °F 29.65 in SW 1.2 mph   90 % 0.00 in
04:29 53.4 °F 50.5 °F 29.65 in Calm     90 % 0.00 in
04:34 53.4 °F 50.5 °F 29.66 in Calm     90 % 0.00 in
04:39 53.4 °F 50.5 °F 29.65 in Calm     90 % 0.00 in
04:44 53.3 °F 50.4 °F 29.65 in Calm     90 % 0.00 in
04:49 53.1 °F 50.2 °F 29.65 in Calm     90 % 0.00 in
04:54 53.0 °F 50.4 °F 29.64 in Calm     91 % 0.00 in
04:59 53.0 °F 50.4 °F 29.64 in Calm     91 % 0.00 in
05:04 52.8 °F 49.9 °F 29.65 in Calm     90 % 0.00 in
05:09 52.7 °F 49.8 °F 29.65 in Calm     90 % 0.00 in
05:14 52.7 °F 50.1 °F 29.64 in SW 1.0 mph 1.2 mph 91 % 0.00 in
05:19 52.7 °F 50.1 °F 29.65 in Calm     91 % 0.00 in
05:24 52.6 °F 50.0 °F 29.64 in Calm     91 % 0.00 in
05:29 52.6 °F 50.0 °F 29.64 in Calm     91 % 0.00 in
05:34 52.5 °F 49.9 °F 29.64 in Calm     91 % 0.00 in
05:39 52.3 °F 49.8 °F 29.64 in Calm     91 % 0.00 in
05:44 52.2 °F 49.7 °F 29.64 in Calm     91 % 0.00 in
05:49 52.0 °F 49.5 °F 29.64 in Calm     91 % 0.00 in
05:54 52.0 °F 49.7 °F 29.64 in Calm     92 % 0.00 in
05:59 51.9 °F 49.6 °F 29.64 in SW 3.5 mph 0.9 mph 92 % 0.00 in
06:04 51.8 °F 49.5 °F 29.64 in Calm     92 % 0.00 in
06:09 51.8 °F 49.5 °F 29.64 in Calm     92 % 0.00 in
06:14 51.7 °F 49.5 °F 29.64 in Calm     92 % 0.00 in
06:19 51.7 °F 49.5 °F 29.65 in SW 2.0 mph 0.6 mph 92 % 0.00 in
06:24 51.7 °F 49.5 °F 29.64 in Calm     92 % 0.00 in
06:29 51.6 °F 49.4 °F 29.65 in SW 2.3 mph 0.4 mph 92 % 0.00 in
06:34 51.7 °F 49.5 °F 29.65 in Calm     92 % 0.00 in
06:39 51.6 °F 49.4 °F 29.65 in Calm     92 % 0.00 in
06:44 51.5 °F 49.3 °F 29.65 in Calm     92 % 0.00 in
06:49 51.5 °F 49.5 °F 29.65 in SW 3.5 mph 2.2 mph 93 % 0.00 in
06:54 51.7 °F 49.7 °F 29.65 in Calm     93 % 0.00 in
06:59 51.7 °F 49.7 °F 29.65 in Calm     93 % 0.00 in
07:04 51.9 °F 49.9 °F 29.65 in Calm     93 % 0.00 in
07:09 52.2 °F 50.5 °F 29.65 in Calm     94 % 0.00 in
07:14 52.2 °F 50.2 °F 29.65 in Calm     93 % 0.00 in
07:19 52.3 °F 50.3 °F 29.65 in Calm     93 % 0.00 in
07:24 52.3 °F 50.3 °F 29.65 in Calm     93 % 0.00 in
07:29 52.4 °F 50.4 °F 29.65 in Calm     93 % 0.00 in
07:34 52.7 °F 51.0 °F 29.65 in SW 3.5 mph 1.4 mph 94 % 0.00 in
07:39 53.0 °F 51.3 °F 29.65 in SW 1.2 mph 0.7 mph 94 % 0.00 in
07:44 53.2 °F 51.5 °F 29.65 in SW 3.5 mph 1.9 mph 94 % 0.00 in
07:49 53.4 °F 51.7 °F 29.65 in SW 3.5 mph 2.3 mph 94 % 0.00 in
07:54 53.6 °F 51.9 °F 29.65 in SW 3.5 mph 2.1 mph 94 % 0.00 in
07:59 53.8 °F 51.8 °F 29.65 in SW 3.5 mph 2.6 mph 93 % 0.00 in
08:04 54.3 °F 52.6 °F 29.64 in SW 5.8 mph 4.1 mph 94 % 0.00 in
08:09 55.0 °F 53.0 °F 29.64 in SW 5.0 mph 4.6 mph 93 % 0.00 in
08:14 55.6 °F 53.6 °F 29.64 in SW 5.8 mph 3.7 mph 93 % 0.00 in
08:19 56.3 °F 54.3 °F 29.64 in SW 2.0 mph 0.7 mph 93 % 0.00 in
08:24 57.1 °F 54.8 °F 29.64 in SW 4.0 mph 1.9 mph 92 % 0.00 in
08:29 57.9 °F 55.0 °F 29.63 in SW 6.0 mph 2.4 mph 90 % 0.00 in
08:34 58.5 °F 55.3 °F 29.63 in West 6.9 mph 4.9 mph 89 % 0.00 in
08:39 59.2 °F 55.3 °F 29.64 in West 6.9 mph 3.2 mph 87 % 0.00 in
08:44 59.8 °F 55.3 °F 29.64 in West 5.8 mph 5.8 mph 85 % 0.00 in
08:49 60.6 °F 55.7 °F 29.64 in West 7.0 mph 2.9 mph 84 % 0.00 in
08:54 61.1 °F 55.2 °F 29.64 in WNW 6.0 mph 5.4 mph 81 % 0.00 in
08:59 61.4 °F 55.2 °F 29.64 in North 10.4 mph 4.4 mph 80 % 0.00 in
09:04 61.5 °F 54.9 °F 29.64 in NW 9.2 mph 6.4 mph 79 % 0.00 in
09:09 61.8 °F 55.2 °F 29.64 in NNW 9.2 mph 5.6 mph 79 % 0.00 in
09:14 62.1 °F 55.2 °F 29.64 in NNW 6.9 mph 7.4 mph 78 % 0.00 in
09:19 62.5 °F 55.5 °F 29.64 in NNW 10.4 mph 6.6 mph 78 % 0.00 in
09:24 62.9 °F 55.9 °F 29.64 in NNW 6.0 mph 7.4 mph 78 % 0.00 in
09:29 63.1 °F 55.8 °F 29.63 in NW 10.0 mph 9.1 mph 77 % 0.00 in
09:34 63.0 °F 55.7 °F 29.63 in NW 15.0 mph 8.9 mph 77 % 0.00 in
09:39 63.0 °F 55.7 °F 29.63 in NNW 12.7 mph 9.9 mph 77 % 0.00 in
09:44 63.4 °F 55.7 °F 29.63 in NW 13.8 mph 10.5 mph 76 % 0.00 in
09:49 63.3 °F 55.2 °F 29.63 in NW 11.5 mph 4.7 mph 75 % 0.00 in
09:54 63.9 °F 56.2 °F 29.63 in NW 11.5 mph 8.0 mph 76 % 0.00 in
09:59 64.5 °F 55.7 °F 29.63 in NW 13.8 mph 10.3 mph 73 % 0.00 in
10:04 64.4 °F 55.6 °F 29.63 in NW 12.7 mph 12.5 mph 73 % 0.00 in
10:09 64.2 °F 55.7 °F 29.63 in NW 12.7 mph 8.8 mph 74 % 0.00 in
10:14 64.4 °F 55.9 °F 29.63 in NW 6.9 mph 5.7 mph 74 % 0.00 in
10:19 64.3 °F 55.8 °F 29.63 in NW 8.1 mph 4.3 mph 74 % 0.00 in
10:24 64.4 °F 55.9 °F 29.62 in WNW 8.1 mph 6.1 mph 74 % 0.00 in
10:29 64.5 °F 56.0 °F 29.63 in NNW 8.1 mph 4.6 mph 74 % 0.00 in
10:34 65.6 °F 56.7 °F 29.63 in WNW 11.5 mph 10.1 mph 73 % 0.00 in
10:39 65.5 °F 56.2 °F 29.63 in NW 11.5 mph 7.0 mph 72 % 0.00 in
10:44 65.6 °F 56.3 °F 29.62 in NNW 11.5 mph 8.9 mph 72 % 0.00 in
10:49 65.8 °F 56.5 °F 29.62 in NW 5.8 mph 3.5 mph 72 % 0.00 in
10:54 66.1 °F 56.8 °F 29.62 in NW 9.2 mph 6.8 mph 72 % 0.00 in
10:59 65.5 °F 56.2 °F 29.62 in WNW 15.0 mph 10.5 mph 72 % 0.00 in
11:04 65.3 °F 56.4 °F 29.62 in NNW 13.8 mph 7.1 mph 73 % 0.00 in
11:09 65.7 °F 56.8 °F 29.62 in NNW 6.9 mph 5.0 mph 73 % 0.00 in
11:14 65.8 °F 56.5 °F 29.61 in NW 13.0 mph 8.2 mph 72 % 0.00 in
11:19 65.6 °F 56.3 °F 29.62 in NW 17.3 mph 9.4 mph 72 % 0.00 in
11:24 65.6 °F 56.3 °F 29.61 in NNW 13.8 mph 8.6 mph 72 % 0.00 in
11:29 65.9 °F 56.2 °F 29.61 in NNW 12.7 mph 8.3 mph 71 % 0.00 in
11:34 66.0 °F 56.7 °F 29.61 in NNW 11.5 mph 9.7 mph 72 % 0.00 in
11:39 66.3 °F 56.6 °F 29.61 in NW 10.4 mph 7.2 mph 71 % 0.00 in
11:44 66.9 °F 57.2 °F 29.61 in North 11.0 mph 7.9 mph 71 % 0.00 in
11:49 66.9 °F 57.2 °F 29.61 in NNW 11.5 mph 6.0 mph 71 % 0.00 in
11:54 66.9 °F 57.2 °F 29.60 in NW 11.5 mph 7.3 mph 71 % 0.00 in
11:59 67.6 °F 57.9 °F 29.60 in WNW 8.1 mph 8.4 mph 71 % 0.00 in
12:04 67.6 °F 56.2 °F 29.60 in NW 11.5 mph 10.6 mph 67 % 0.00 in
12:09 67.1 °F 56.2 °F 29.60 in WNW 11.5 mph 7.3 mph 68 % 0.00 in
12:14 67.0 °F 56.1 °F 29.60 in NNW 16.1 mph 10.7 mph 68 % 0.00 in
12:19 67.1 °F 56.2 °F 29.59 in NNW 13.8 mph 8.5 mph 68 % 0.00 in
12:24 67.2 °F 56.3 °F 29.59 in NW 11.0 mph 7.9 mph 68 % 0.00 in
12:29 67.2 °F 56.7 °F 29.58 in NW 9.2 mph 7.3 mph 69 % 0.00 in
12:34 67.3 °F 56.8 °F 29.59 in NNW 9.0 mph 6.4 mph 69 % 0.00 in
12:39 67.4 °F 56.5 °F 29.58 in WNW 10.4 mph 10.1 mph 68 % 0.00 in
12:44 67.7 °F 56.8 °F 29.58 in NW 13.0 mph 11.0 mph 68 % 0.00 in
12:49 67.8 °F 56.9 °F 29.58 in NW 13.8 mph 7.1 mph 68 % 0.00 in
12:54 68.1 °F 57.5 °F 29.58 in North 12.7 mph 7.7 mph 69 % 0.00 in
12:59 68.0 °F 57.0 °F 29.58 in NNW 17.3 mph 10.3 mph 68 % 0.00 in
13:04 68.0 °F 57.4 °F 29.57 in NW 13.0 mph 10.1 mph 69 % 0.00 in
13:09 68.5 °F 57.5 °F 29.57 in NNW 9.2 mph 7.4 mph 68 % 0.00 in
13:14 68.9 °F 57.1 °F 29.57 in NW 15.0 mph 8.7 mph 66 % 0.00 in
13:19 69.2 °F 56.9 °F 29.57 in North 16.1 mph 7.5 mph 65 % 0.00 in
13:24 69.3 °F 57.0 °F 29.56 in NW 9.2 mph 6.7 mph 65 % 0.00 in
13:29 69.6 °F 56.9 °F 29.56 in NNW 12.7 mph 9.4 mph 64 % 0.00 in
13:34 69.3 °F 56.6 °F 29.56 in NW 11.5 mph 6.5 mph 64 % 0.00 in
13:39 69.4 °F 56.7 °F 29.55 in NW 9.2 mph 5.6 mph 64 % 0.00 in
13:44 69.2 °F 56.5 °F 29.55 in WNW 15.0 mph 11.8 mph 64 % 0.00 in
13:49 69.4 °F 56.3 °F 29.55 in NW 16.0 mph 14.2 mph 63 % 0.00 in
13:54 69.6 °F 56.9 °F 29.55 in WNW 9.2 mph 5.3 mph 64 % 0.00 in
13:59 70.0 °F 56.4 °F 29.55 in NW 13.8 mph 9.6 mph 62 % 0.00 in
14:04 70.3 °F 56.7 °F 29.55 in North 12.7 mph 5.7 mph 62 % 0.00 in
14:09 70.6 °F 56.9 °F 29.54 in North 10.4 mph 3.1 mph 62 % 0.00 in
14:14 70.7 °F 56.6 °F 29.54 in NW 9.0 mph 7.6 mph 61 % 0.00 in
14:19 70.9 °F 56.3 °F 29.54 in NW 13.8 mph 11.1 mph 60 % 0.00 in
14:24 70.8 °F 56.2 °F 29.54 in WNW 11.0 mph 6.8 mph 60 % 0.00 in
14:29 70.8 °F 56.2 °F 29.54 in NW 12.7 mph 9.9 mph 60 % 0.00 in
14:34 70.6 °F 56.0 °F 29.54 in WNW 13.8 mph 8.9 mph 60 % 0.00 in
14:39 70.5 °F 55.9 °F 29.54 in WNW 12.0 mph 9.9 mph 60 % 0.00 in
14:44 70.5 °F 56.4 °F 29.54 in NNW 11.5 mph 8.1 mph 61 % 0.00 in
14:49 70.5 °F 55.9 °F 29.54 in NW 15.0 mph 10.0 mph 60 % 0.00 in
14:54 70.4 °F 56.3 °F 29.53 in North 11.5 mph 9.1 mph 61 % 0.00 in
14:59 70.9 °F 56.8 °F 29.53 in WNW 12.7 mph 8.8 mph 61 % 0.00 in
15:04 71.1 °F 56.5 °F 29.53 in WNW 12.7 mph 8.5 mph 60 % 0.00 in
15:09 71.0 °F 56.9 °F 29.52 in WNW 13.8 mph 7.9 mph 61 % 0.00 in
15:14 71.4 °F 56.3 °F 29.52 in NNW 13.8 mph 10.2 mph 59 % 0.00 in
15:19 71.8 °F 57.2 °F 29.52 in NW 18.4 mph 8.8 mph 60 % 0.00 in
15:24 72.5 °F 56.4 °F 29.52 in WNW 18.4 mph 8.7 mph 57 % 0.00 in
15:29 72.8 °F 56.7 °F 29.52 in NNW 16.1 mph 11.3 mph 57 % 0.00 in
15:34 72.3 °F 56.7 °F 29.51 in WNW 15.0 mph 10.3 mph 58 % 0.00 in
15:39 73.3 °F 57.6 °F 29.51 in NW 12.7 mph 7.8 mph 58 % 0.00 in
15:44 74.1 °F 57.4 °F 29.51 in NW 18.0 mph 9.5 mph 56 % 0.00 in
15:49 73.2 °F 57.1 °F 29.51 in NW 15.0 mph 14.0 mph 57 % 0.00 in
15:54 72.8 °F 56.7 °F 29.50 in NW 13.8 mph 10.2 mph 57 % 0.00 in
15:59 72.6 °F 57.4 °F 29.50 in NNW 11.5 mph 7.9 mph 59 % 0.00 in
16:04 73.3 °F 57.6 °F 29.50 in North 17.0 mph 9.9 mph 58 % 0.00 in
16:09 73.8 °F 57.6 °F 29.50 in NW 17.3 mph 9.4 mph 57 % 0.00 in
16:14 73.7 °F 57.5 °F 29.50 in North 16.0 mph 11.5 mph 57 % 0.00 in
16:19 72.8 °F 57.2 °F 29.50 in NW 16.1 mph 12.5 mph 58 % 0.00 in
16:24 72.6 °F 57.4 °F 29.50 in NW 17.3 mph 11.0 mph 59 % 0.00 in
16:29 72.3 °F 57.6 °F 29.49 in NW 15.0 mph 10.1 mph 60 % 0.00 in
16:34 72.7 °F 58.0 °F 29.49 in NW 15.0 mph 8.7 mph 60 % 0.00 in
16:39 73.2 °F 57.5 °F 29.49 in NW 13.0 mph 11.1 mph 58 % 0.00 in
16:44 73.4 °F 57.7 °F 29.48 in NW 16.1 mph 8.8 mph 58 % 0.00 in
16:49 73.3 °F 57.6 °F 29.48 in NW 14.0 mph 11.4 mph 58 % 0.00 in
16:54 72.2 °F 57.5 °F 29.49 in NW 19.6 mph 12.8 mph 60 % 0.00 in
16:59 71.9 °F 57.7 °F 29.48 in WNW 17.3 mph 10.1 mph 61 % 0.00 in
17:04 71.7 °F 58.0 °F 29.48 in NW 15.0 mph 10.8 mph 62 % 0.00 in
17:09 71.9 °F 58.2 °F 29.48 in WNW 11.5 mph 8.5 mph 62 % 0.00 in
17:14 72.5 °F 58.3 °F 29.48 in WNW 15.0 mph 12.8 mph 61 % 0.00 in
17:19 72.5 °F 58.3 °F 29.48 in WNW 11.5 mph 8.1 mph 61 % 0.00 in
17:24 73.0 °F 58.3 °F 29.47 in NW 13.8 mph 9.9 mph 60 % 0.00 in
17:29 73.3 °F 58.1 °F 29.47 in NW 9.2 mph 5.8 mph 59 % 0.00 in
17:34 73.5 °F 58.3 °F 29.47 in WNW 10.4 mph 6.1 mph 59 % 0.00 in
17:39 73.4 °F 57.2 °F 29.47 in NW 11.5 mph 9.0 mph 57 % 0.00 in
17:44 73.1 °F 57.9 °F 29.46 in WNW 12.0 mph 6.1 mph 59 % 0.00 in
17:49 73.1 °F 57.0 °F 29.46 in NW 11.5 mph 6.6 mph 57 % 0.00 in
17:54 73.3 °F 57.1 °F 29.46 in North 12.0 mph 8.9 mph 57 % 0.00 in
17:59 74.1 °F 56.9 °F 29.46 in NNW 15.0 mph 9.1 mph 55 % 0.00 in
18:04 74.1 °F 56.4 °F 29.46 in WNW 17.3 mph 10.5 mph 54 % 0.00 in
18:09 73.6 °F 56.4 °F 29.46 in NW 19.0 mph 6.1 mph 55 % 0.00 in
18:14 73.5 °F 56.3 °F 29.45 in NW 10.4 mph 8.1 mph 55 % 0.00 in
18:19 73.3 °F 55.6 °F 29.45 in NW 19.6 mph 10.2 mph 54 % 0.00 in
18:24 73.1 °F 55.5 °F 29.45 in NW 13.8 mph 10.4 mph 54 % 0.00 in
18:29 73.0 °F 55.4 °F 29.45 in NW 10.4 mph 8.3 mph 54 % 0.00 in
18:34 73.1 °F 55.5 °F 29.45 in NW 17.3 mph 7.3 mph 54 % 0.00 in
18:39 73.1 °F 54.9 °F 29.45 in WNW 18.4 mph 8.9 mph 53 % 0.00 in
18:44 73.1 °F 54.9 °F 29.45 in WNW 13.8 mph 11.1 mph 53 % 0.00 in
18:49 73.2 °F 55.6 °F 29.44 in NW 12.0 mph 8.9 mph 54 % 0.00 in
18:54 73.4 °F 55.7 °F 29.45 in NW 11.5 mph 7.2 mph 54 % 0.00 in
18:59 73.4 °F 55.2 °F 29.44 in NW 19.6 mph 9.3 mph 53 % 0.00 in
19:04 73.2 °F 55.6 °F 29.45 in NW 12.7 mph 7.6 mph 54 % 0.00 in
19:09 73.0 °F 55.4 °F 29.44 in NW 11.5 mph 7.6 mph 54 % 0.00 in
19:14 73.0 °F 55.4 °F 29.45 in NW 11.5 mph 8.0 mph 54 % 0.00 in
19:19 73.1 °F 54.9 °F 29.45 in WNW 15.0 mph 7.0 mph 53 % 0.00 in
19:24 73.0 °F 54.9 °F 29.45 in WNW 12.0 mph 8.9 mph 53 % 0.00 in
19:29 73.0 °F 54.9 °F 29.45 in WNW 19.6 mph 11.5 mph 53 % 0.00 in
19:34 73.3 °F 54.6 °F 29.45 in NW 19.6 mph 9.4 mph 52 % 0.00 in
19:39 73.0 °F 54.9 °F 29.45 in NW 10.4 mph 7.6 mph 53 % 0.00 in
19:44 72.8 °F 54.7 °F 29.45 in WNW 17.3 mph 10.2 mph 53 % 0.00 in
19:49 72.6 °F 54.5 °F 29.45 in NW 12.7 mph 8.5 mph 53 % 0.00 in
19:54 72.5 °F 54.4 °F 29.45 in NW 13.8 mph 8.5 mph 53 % 0.00 in
19:59 72.4 °F 54.3 °F 29.44 in NW 19.0 mph 14.3 mph 53 % 0.00 in
20:04 72.4 °F 54.3 °F 29.44 in NW 11.5 mph 6.7 mph 53 % 0.00 in
20:09 72.3 °F 53.7 °F 29.44 in NW 15.0 mph 8.8 mph 52 % 0.00 in
20:14 72.2 °F 53.6 °F 29.44 in NW 10.4 mph 5.7 mph 52 % 0.00 in
20:19 72.1 °F 53.5 °F 29.44 in NW 11.5 mph 7.1 mph 52 % 0.00 in
20:24 71.9 °F 53.3 °F 29.44 in NW 9.0 mph 5.6 mph 52 % 0.00 in
20:29 71.8 °F 53.7 °F 29.44 in NW 8.1 mph 5.3 mph 53 % 0.00 in
20:34 71.7 °F 53.7 °F 29.44 in NW 8.1 mph 5.1 mph 53 % 0.00 in
20:39 71.5 °F 53.5 °F 29.44 in NW 8.1 mph 5.2 mph 53 % 0.00 in
20:44 71.4 °F 53.4 °F 29.44 in NW 10.4 mph 7.5 mph 53 % 0.00 in
20:49 71.4 °F 53.4 °F 29.44 in NW 5.8 mph 4.5 mph 53 % 0.00 in
20:54 71.1 °F 53.1 °F 29.44 in NW 6.0 mph 5.2 mph 53 % 0.00 in
20:59 70.9 °F 53.4 °F 29.44 in NW 6.9 mph 4.1 mph 54 % 0.00 in
21:04 70.7 °F 53.2 °F 29.44 in NW 6.9 mph 4.3 mph 54 % 0.00 in
21:09 70.7 °F 53.2 °F 29.44 in NW 12.7 mph 8.1 mph 54 % 0.00 in
21:14 70.9 °F 53.4 °F 29.44 in NW 16.1 mph 6.9 mph 54 % 0.00 in
21:19 70.9 °F 53.9 °F 29.44 in WNW 13.8 mph 6.5 mph 55 % 0.00 in
21:24 70.6 °F 53.6 °F 29.44 in WNW 9.2 mph 5.7 mph 55 % 0.00 in
21:29 70.1 °F 54.6 °F 29.44 in WNW 13.8 mph 10.2 mph 58 % 0.00 in
21:34 69.4 °F 55.8 °F 29.45 in WNW 17.0 mph 12.1 mph 62 % 0.00 in
21:39 68.9 °F 56.2 °F 29.45 in WNW 17.3 mph 9.2 mph 64 % 0.00 in
21:44 68.4 °F 56.6 °F 29.45 in West 17.0 mph 10.6 mph 66 % 0.00 in
21:49 68.0 °F 56.6 °F 29.45 in West 11.5 mph 11.6 mph 67 % 0.00 in
21:54 67.6 °F 56.7 °F 29.45 in WNW 18.4 mph 12.7 mph 68 % 0.00 in
21:59 67.4 °F 56.9 °F 29.45 in WNW 17.3 mph 10.3 mph 69 % 0.00 in
22:04 67.2 °F 57.1 °F 29.45 in West 15.0 mph 9.5 mph 70 % 0.00 in
22:09 66.9 °F 56.8 °F 29.45 in WNW 13.8 mph 7.2 mph 70 % 0.00 in
22:14 66.7 °F 57.0 °F 29.45 in WNW 11.5 mph 8.5 mph 71 % 0.00 in
22:19 66.5 °F 56.8 °F 29.45 in NW 8.1 mph 6.1 mph 71 % 0.00 in
22:24 66.2 °F 56.5 °F 29.45 in NW 7.0 mph 5.5 mph 71 % 0.00 in
22:29 66.1 °F 56.8 °F 29.45 in WNW 15.0 mph 6.1 mph 72 % 0.00 in
22:34 66.0 °F 56.7 °F 29.45 in NW 16.1 mph 8.0 mph 72 % 0.00 in
22:39 65.7 °F 56.4 °F 29.45 in WNW 18.4 mph 8.6 mph 72 % 0.00 in
22:44 65.5 °F 56.2 °F 29.45 in NW 11.5 mph 10.8 mph 72 % 0.00 in
22:45 65.5 °F 56.2 °F 29.45 in NW 17.3 mph 10.8 mph 72 % 0.00 in
22:54 65.3 °F 56.0 °F 29.45 in NW 17.3 mph 13.0 mph 72 % 0.00 in
22:59 65.2 °F 55.9 °F 29.45 in WNW 12.7 mph 11.4 mph 72 % 0.00 in
23:04 65.0 °F 55.8 °F 29.45 in NW 11.5 mph 7.3 mph 72 % 0.00 in
23:09 64.8 °F 55.9 °F 29.44 in WNW 12.0 mph 7.8 mph 73 % 0.00 in
23:14 64.6 °F 55.7 °F 29.44 in WNW 11.5 mph 6.8 mph 73 % 0.00 in
23:19 64.4 °F 55.6 °F 29.43 in WNW 11.5 mph 8.4 mph 73 % 0.00 in
23:24 64.3 °F 55.5 °F 29.43 in WNW 13.8 mph 6.8 mph 73 % 0.00 in
23:29 64.1 °F 55.3 °F 29.43 in NW 10.4 mph 7.5 mph 73 % 0.00 in
23:34 64.0 °F 55.2 °F 29.42 in NNW 10.4 mph 9.1 mph 73 % 0.00 in
23:39 63.9 °F 55.1 °F 29.42 in NW 14.0 mph 10.7 mph 73 % 0.00 in
23:44 63.8 °F 55.0 °F 29.42 in WNW 8.1 mph 5.8 mph 73 % 0.00 in
23:49 63.7 °F 54.9 °F 29.42 in NW 9.2 mph 6.3 mph 73 % 0.00 in
23:54 63.7 °F 54.9 °F 29.42 in NW 11.5 mph 8.1 mph 73 % 0.00 in
23:59 63.6 °F 54.8 °F 29.42 in NW 9.2 mph 7.9 mph 73 % 0.00 in
Ararat Weather
Compliments of Weather Underground - 2.25 mb
Click here to send mail.


ABOUT

Live weather data from Ararat, Victoria, Australia, 3377
Data uploaded from Cumulus every 5 minutes to Weather Underground.
This site then downloads the raw data for formatting and display.
Metric and imperial data can be displayed. Graphs and historical data available.
Includes Sun and Moon times and rain image live from BOM.

Check out Ararat Weather on Facebook, Twitter and Google +

Help support ongoing costs by checking out the ads





Follow @AraratWeather